DW7584 Weather Reports


Display with metric or nautical units.
time (UTC)temp
F
wind
direction
speed
MPH
gust
MPH
rain 1hr
in
rain 24hr
in
rain mn
in
humidity
%
barometer
mb
20260507141516 44 248 7.0 9.0 0.00 0.00 0.00 60 1014.8
20260507140516 44 248 7.0 10.0 0.00 0.00 0.00 63 1014.9
20260507135516 42 225 7.0 10.0 0.00 0.00 0.00 65 1015.0
20260507134516 41 248 8.0 10.0 0.00 0.00 0.00 66 1015.0
20260507133516 41 225 6.0 7.0 0.00 0.00 0.00 70 1015.0
20260507132516 40 225 3.0 6.0 0.00 0.00 0.00 71 1014.9
20260507131518 39 225 5.0 7.0 0.00 0.00 0.00 72 1015.0
20260507130536 39 225 5.0 8.0 0.00 0.00 0.00 72 1015.1
20260507125516 38 225 4.0 6.0 0.00 0.00 0.00 74 1015.1
20260507124516 38 225 5.0 8.0 0.00 0.00 0.00 74 1015.2
20260507123516 38 225 6.0 8.0 0.00 0.00 0.00 74 1015.2
20260507122516 37 225 7.0 9.0 0.00 0.00 0.00 73 1015.1
20260507121536 37 225 6.0 9.0 0.00 0.00 0.00 75 1015.1
20260507120516 37 225 5.0 6.0 0.00 0.00 0.00 76 1014.9
20260507115516 37 225 6.0 8.0 0.00 0.00 0.00 75 1014.9
20260507114517 36 248 3.0 5.0 0.00 0.00 0.00 76 1014.9
20260507113519 36 248 3.0 4.0 0.00 0.00 0.00 74 1014.6
20260507112516 35 248 3.0 4.0 0.00 0.00 0.00 76 1014.4
20260507111516 34 248 3.0 4.0 0.00 0.00 0.00 78 1014.3
20260507110516 33 225 2.0 3.0 0.00 0.00 0.00 78 1014.2
20260507105516 33 225 2.0 3.0 0.00 0.00 0.00 78 1014.3
20260507104516 33 225 3.0 3.0 0.00 0.00 0.00 78 1014.2
20260507103516 33 225 3.0 4.0 0.00 0.00 0.00 78 1014.3
20260507102515 33 225 3.0 4.0 0.00 0.00 0.00 78 1014.2
20260507101516 33 225 2.0 3.0 0.00 0.00 0.00 78 1014.3
20260507100516 33 225 2.0 3.0 0.00 0.00 0.00 77 1014.2
20260507095515 33 248 3.0 3.0 0.00 0.00 0.00 77 1014.3
20260507094516 33 248 3.0 4.0 0.00 0.00 0.00 77 1014.4
20260507093516 32 225 2.0 3.0 0.00 0.00 0.00 79 1014.4
20260507092516 32 225 2.0 2.0 0.00 0.00 0.00 79 1014.4
20260507091517 33 225 2.0 3.0 0.00 0.00 0.00 79 1014.4
20260507090517 33 225 2.0 4.0 0.00 0.00 0.00 79 1014.5
20260507085517 33 225 2.0 4.0 0.00 0.00 0.00 79 1014.5
20260507084537 33 225 2.0 4.0 0.00 0.00 0.00 77 1014.6
20260507083518 33 225 2.0 3.0 0.00 0.00 0.00 77 1014.7
20260507082518 33 225 3.0 4.0 0.00 0.00 0.00 78 1014.5
20260507081517 33 225 2.0 3.0 0.00 0.00 0.00 78 1014.5
20260507080517 33 225 2.0 3.0 0.00 0.00 0.00 77 1014.4
20260507075517 34 225 1.0 2.0 0.00 0.00 0.00 77 1014.4
20260507074521 34 225 1.0 2.0 0.00 0.00 0.00 76 1014.4
20260507073537 34 225 2.0 3.0 0.00 0.00 0.00 75 1014.4
20260507072517 34 225 2.0 4.0 0.00 0.00 0.00 74 1014.5
20260507071517 35 225 2.0 3.0 0.00 0.00 0.00 75 1014.7
20260507070517 36 225 2.0 4.0 0.00 0.00 0.00 73 1014.8
20260507065517 37 225 3.0 4.0 0.00 0.00 0.00 70 1015.0
20260507064538 38 248 3.0 4.0 0.00 0.00 0.00 69 1015.0
20260507063518 38 248 3.0 4.0 0.00 0.00 0.00 69 1015.2
20260507062517 38 248 3.0 4.0 0.00 0.00 0.00 70 1015.3
20260507061517 38 248 3.0 3.0 0.00 0.00 0.00 69 1015.5
20260507060517 38 248 3.0 4.0 0.00 0.00 0.00 68 1015.5
20260507055537 38 248 3.0 4.0 0.00 0.00 0.00 67 1015.5
20260507054517 38 248 3.0 4.0 0.00 0.00 0.00 66 1015.7
20260507053518 38 248 3.0 3.0 0.00 0.00 0.00 67 1015.7
20260507052517 38 248 3.0 4.0 0.00 0.00 0.00 67 1015.8
20260507051517 38 248 3.0 4.0 0.00 0.00 0.00 67 1015.9
20260507050517 38 248 3.0 4.0 0.00 0.00 0.00 66 1015.9
20260507045517 38 248 3.0 3.0 0.00 0.00 0.00 65 1015.9
20260507044518 38 225 2.0 3.0 0.00 0.00 0.00 64 1016.0
20260507043518 38 248 3.0 4.0 0.00 0.00 0.00 65 1016.0
20260507042517 38 248 3.0 4.0 0.00 0.00 0.00 64 1015.8
20260507041517 38 270 4.0 4.0 0.00 0.00 0.00 65 1015.9
20260507040522 38 248 4.0 4.0 0.00 0.00 0.00 66 1015.8
20260507035517 39 248 4.0 4.0 0.00 0.00 0.00 65 1015.7
20260507034517 39 270 3.0 4.0 0.00 0.00 0.00 65 1015.6
20260507033517 39 270 3.0 4.0 0.00 0.00 0.00 65 1015.6
20260507032517 39 248 4.0 5.0 0.00 0.00 0.00 65 1015.7
20260507031519 39 248 4.0 4.0 0.00 0.00 0.00 66 1015.6
20260507030517 39 248 4.0 5.0 0.00 0.00 0.00 65 1015.7
20260507025517 40 270 4.0 6.0 0.00 0.00 0.00 64 1015.7
20260507024517 40 270 4.0 6.0 0.00 0.00 0.00 62 1015.6
20260507023537 40 270 5.0 7.0 0.00 0.00 0.00 63 1015.6
20260507022517 40 270 5.0 6.0 0.00 0.00 0.00 63 1015.5
20260507021537 40 248 5.0 6.0 0.00 0.00 0.00 65 1015.3
20260507020520 40 248 5.0 6.0 0.00 0.00 0.00 66 1015.3
20260507015558 40 248 5.0 6.0 0.00 0.00 0.00 67 1015.2
20260507014517 40 248 5.0 6.0 0.00 0.00 0.00 67 1015.0
20260507013517 41 248 5.0 5.0 0.00 0.00 0.00 66 1014.8
20260507012537 41 248 6.0 10.0 0.00 0.00 0.00 65 1014.8
20260507011537 42 248 7.0 8.0 0.00 0.00 0.00 63 1014.6
20260507010537 42 248 6.0 9.0 0.00 0.00 0.00 63 1014.5
20260507005517 42 248 5.0 7.0 0.00 0.00 0.00 61 1014.4
20260507004518 43 248 6.0 8.0 0.00 0.00 0.00 60 1014.3
20260507003517 44 248 7.0 10.0 0.00 0.00 0.00 58 1014.3
20260507002517 46 248 10.0 13.0 0.00 0.00 0.00 53 1014.2
20260507001517 46 248 10.0 14.0 0.00 0.00 0.00 52 1013.9
20260507000517 46 248 10.0 16.0 0.00 0.00 0.00 52 1013.9
20260506235517 47 248 13.0 17.0 0.00 0.00 0.00 51 1013.8
20260506234517 48 248 13.0 17.0 0.00 0.00 0.00 49 1013.7
20260506233517 48 248 13.0 17.0 0.00 0.00 0.00 49 1013.8
20260506232517 49 270 10.0 17.0 0.00 0.00 0.00 51 1013.7
20260506231517 49 248 10.0 14.0 0.00 0.00 0.00 52 1013.7
20260506230517 48 248 13.0 17.0 0.00 0.00 0.00 50 1013.6
20260506225517 49 248 13.0 15.0 0.00 0.00 0.00 49 1013.5
20260506224517 49 248 12.0 16.0 0.00 0.00 0.00 47 1013.5
20260506223516 49 248 11.0 14.0 0.00 0.00 0.00 48 1013.5
20260506222517 50 248 8.0 11.0 0.00 0.00 0.00 47 1013.6
20260506221517 50 248 10.0 16.0 0.00 0.00 0.00 44 1013.5
20260506220517 51 248 12.0 16.0 0.00 0.00 0.00 42 1013.5
20260506215516 51 270 13.0 16.0 0.00 0.00 0.00 46 1013.5
20260506214517 50 248 10.0 16.0 0.00 0.00 0.00 48 1013.6
20260506213517 50 248 13.0 17.0 0.00 0.00 0.00 45 1013.4
20260506212517 50 248 8.0 14.0 0.00 0.00 0.00 48 1013.4
20260506211516 50 270 10.0 15.0 0.00 0.00 0.00 46 1013.5
20260506210516 50 248 10.0 14.0 0.00 0.00 0.00 47 1013.4
20260506205517 49 270 7.0 11.0 0.00 0.00 0.00 52 1013.6
20260506204516 49 270 7.0 12.0 0.00 0.00 0.00 48 1013.5
20260506203516 49 248 7.0 10.0 0.00 0.00 0.00 46 1013.6
20260506202538 49 270 7.0 12.0 0.00 0.00 0.00 46 1013.6
20260506201518 49 270 8.0 12.0 0.00 0.00 0.00 51 1013.8
20260506200517 49 270 7.0 11.0 0.00 0.00 0.00 49 1013.9
20260506195517 50 248 9.0 12.0 0.00 0.00 0.00 50 1014.0
20260506194516 50 225 9.0 13.0 0.00 0.00 0.00 50 1013.9
20260506193537 49 248 8.0 11.0 0.00 0.00 0.00 52 1013.9
20260506192516 49 248 9.0 13.0 0.00 0.00 0.00 51 1013.9
20260506191516 49 248 8.0 11.0 0.00 0.00 0.00 52 1013.9
20260506190516 49 270 9.0 12.0 0.00 0.00 0.00 51 1013.9
20260506185517 49 248 7.0 14.0 0.00 0.00 0.00 49 1013.9
20260506184516 49 248 11.0 14.0 0.00 0.00 0.00 49 1013.9
20260506183516 49 270 7.0 10.0 0.00 0.00 0.00 50 1013.8
20260506182516 49 248 6.0 10.0 0.00 0.00 0.00 50 1014.0
20260506181516 48 225 8.0 13.0 0.00 0.00 0.00 52 1014.0
20260506180516 48 248 7.0 10.0 0.00 0.00 0.00 50 1014.1
20260506175516 48 225 8.0 12.0 0.00 0.00 0.00 52 1014.2
20260506174516 49 248 8.0 12.0 0.00 0.00 0.00 50 1014.2
20260506173516 48 248 5.0 10.0 0.00 0.00 0.00 51 1014.3
20260506172518 47 248 5.0 8.0 0.00 0.00 0.00 54 1014.5
20260506171516 47 270 5.0 8.0 0.00 0.00 0.00 55 1014.5
20260506170537 46 270 5.0 10.0 0.00 0.00 0.00 53 1014.4
20260506165517 46 270 5.0 8.0 0.00 0.00 0.00 54 1014.5
20260506164536 46 293 2.0 4.0 0.00 0.00 0.00 55 1014.6
20260506163516 46 270 3.0 6.0 0.00 0.00 0.00 55 1014.5
20260506162516 46 270 3.0 7.0 0.00 0.00 0.00 53 1014.6
20260506161516 47 248 2.0 4.0 0.00 0.00 0.00 53 1014.8
20260506160536 46 270 2.0 5.0 0.00 0.00 0.00 55 1014.8
20260506155536 47 0.0 2.0 0.00 0.00 0.00 53 1014.9
20260506154517 46 0.0 2.0 0.00 0.00 0.00 55 1015.0
20260506153517 46 270 2.0 4.0 0.00 0.00 0.00 54 1014.9
20260506152517 47 315 3.0 6.0 0.00 0.00 0.00 58 1015.0
20260506151516 47 248 3.0 4.0 0.00 0.00 0.00 57 1014.9
20260506150516 47 293 2.0 7.0 0.00 0.00 0.00 55 1014.9
20260506145517 46 293 3.0 5.0 0.00 0.00 0.00 55 1014.9
20260506144516 45 293 2.0 5.0 0.00 0.00 0.00 56 1014.8
20260506143516 45 225 1.0 3.0 0.00 0.00 0.00 62 1014.7
20260506142516 44 270 2.0 4.0 0.00 0.00 0.00 61 1014.7